• în România
  • Lista ţărilor
  • Pe 7 zile
  • Temperatura apei
  • Hartă satelitară
  • Meteo pe hartă
  • Widget-uri
  • user-avatar
    Intrare

    Meteo pe oră la Córdoba

    Astăzi, 26 Iulie, Miercuri

    Timp Temperatura Precipitaţii Vânt Presiune Umiditate
    00:00 +13°C° 0 mm 0 m/s 727 mmHg 89%
    01:00 +12°C° 0 mm 0 m/s 726 mmHg 90%
    02:00 +13°C° 0 mm 1 m/s 726 mmHg 90%
    03:00 +13°C° 0 mm 1 m/s 726 mmHg 90%
    04:00 +13°C° 0 mm 1 m/s 726 mmHg 91%
    05:00 +13°C° 0 mm 1 m/s 726 mmHg 91%
    06:00 +13°C° 0 mm 1 m/s 726 mmHg 90%
    07:00 +13°C° 0 mm 1 m/s 726 mmHg 88%
    08:00 +14°C° 0 mm 1 m/s 727 mmHg 83%
    09:00 +16°C° 0 mm 1 m/s 727 mmHg 78%
    10:00 +18°C° 0 mm 1 m/s 727 mmHg 74%
    11:00 +20°C° 0 mm 1 m/s 728 mmHg 69%
    12:00 +19°C° 0 mm 2 m/s 727 mmHg 68%
    13:00 +20°C° 0 mm 2 m/s 727 mmHg 67%
    14:00 +21°C° 0 mm 2 m/s 726 mmHg 66%
    15:00 +20°C° 0 mm 2 m/s 726 mmHg 69%
    16:00 +19°C° 0 mm 2 m/s 726 mmHg 73%
    17:00 +19°C° 0 mm 2 m/s 725 mmHg 77%
    18:00 +18°C° 0 mm 2 m/s 725 mmHg 81%
    19:00 +18°C° 0 mm 1 m/s 726 mmHg 86%
    20:00 +16°C° 0 mm 1 m/s 726 mmHg 91%
    21:00 +16°C° 0 mm 1 m/s 726 mmHg 91%
    22:00 +16°C° 0 mm 1 m/s 726 mmHg 92%
    23:00 +15°C° 0 mm 1 m/s 726 mmHg 92%

    Mâine, 27 Iulie, Joi

    Timp Temperatura Precipitaţii Vânt Presiune Umiditate
    00:00 +16°C° 0 mm 1 m/s 726 mmHg 92%
    01:00 +16°C° 0 mm 2 m/s 725 mmHg 92%
    02:00 +16°C° 0 mm 2 m/s 725 mmHg 92%
    03:00 +16°C° 0 mm 2 m/s 725 mmHg 93%
    04:00 +16°C° 0 mm 2 m/s 724 mmHg 94%
    05:00 +16°C° 0 mm 2 m/s 724 mmHg 95%
    06:00 +17°C° 0 mm 3 m/s 724 mmHg 94%
    07:00 +17°C° 0 mm 3 m/s 724 mmHg 93%
    08:00 +17°C° 0 mm 3 m/s 724 mmHg 92%
    09:00 +19°C° 0 mm 4 m/s 724 mmHg 83%
    10:00 +21°C° 0 mm 5 m/s 724 mmHg 74%
    11:00 +23°C° 0 mm 6 m/s 724 mmHg 65%
    12:00 +24°C° 0 mm 6 m/s 724 mmHg 55%
    13:00 +27°C° 0 mm 7 m/s 723 mmHg 46%
    14:00 +29°C° 0 mm 8 m/s 722 mmHg 36%
    15:00 +28°C° 0 mm 7 m/s 722 mmHg 36%
    16:00 +28°C° 0 mm 6 m/s 722 mmHg 35%
    17:00 +27°C° 0 mm 5 m/s 721 mmHg 35%
    18:00 +26°C° 0 mm 5 m/s 721 mmHg 38%
    19:00 +23°C° 0 mm 4 m/s 721 mmHg 42%
    20:00 +21°C° 0 mm 4 m/s 722 mmHg 45%
    21:00 +21°C° 0 mm 3 m/s 722 mmHg 46%
    22:00 +20°C° 0 mm 3 m/s 722 mmHg 48%
    23:00 +20°C° 0 mm 3 m/s 722 mmHg 49%

    Poimâine, 28 Iulie, Vineri

    Timp Temperatura Precipitaţii Vânt Presiune Umiditate
    00:00 +20°C° 0 mm 3 m/s 721 mmHg 51%
    01:00 +19°C° 0 mm 3 m/s 721 mmHg 52%
    02:00 +19°C° 0 mm 3 m/s 721 mmHg 54%
    03:00 +19°C° 0 mm 3 m/s 721 mmHg 55%
    04:00 +18°C° 0 mm 3 m/s 720 mmHg 56%
    05:00 +18°C° 0 mm 3 m/s 720 mmHg 58%
    06:00 +18°C° 0 mm 4 m/s 720 mmHg 57%
    07:00 +18°C° 0 mm 4 m/s 721 mmHg 57%
    08:00 +19°C° 0 mm 4 m/s 721 mmHg 56%
    09:00 +21°C° 0 mm 5 m/s 721 mmHg 49%
    10:00 +24°C° 0 mm 6 m/s 721 mmHg 41%
    11:00 +27°C° 0 mm 7 m/s 722 mmHg 33%
    12:00 +28°C° 0 mm 7 m/s 721 mmHg 31%
    13:00 +30°C° 0 mm 7 m/s 721 mmHg 29%
    14:00 +32°C° 0 mm 7 m/s 720 mmHg 27%
    15:00 +30°C° 0 mm 6 m/s 720 mmHg 29%
    16:00 +29°C° 0 mm 5 m/s 719 mmHg 31%
    17:00 +28°C° 0 mm 4 m/s 719 mmHg 33%
    18:00 +27°C° 0 mm 3 m/s 719 mmHg 36%
    19:00 +25°C° 0 mm 3 m/s 720 mmHg 39%
    20:00 +22°C° 0 mm 3 m/s 720 mmHg 42%
    21:00 +22°C° 0 mm 3 m/s 720 mmHg 42%
    22:00 +22°C° 0 mm 3 m/s 721 mmHg 43%
    23:00 +21°C° 0 mm 3 m/s 721 mmHg 44%

    29 Iulie, Sâmbătă

    Timp Temperatura Precipitaţii Vânt Presiune Umiditate
    00:00 +20°C° 0 mm 2 m/s 721 mmHg 45%
    01:00 +20°C° 0 mm 2 m/s 721 mmHg 46%
    02:00 +19°C° 0 mm 2 m/s 721 mmHg 46%
    03:00 +19°C° 0 mm 2 m/s 721 mmHg 49%
    04:00 +19°C° 0 mm 1 m/s 721 mmHg 51%
    05:00 +18°C° 0 mm 1 m/s 721 mmHg 54%
    06:00 +17°C° 0 mm 2 m/s 722 mmHg 58%
    07:00 +17°C° 0 mm 2 m/s 723 mmHg 62%
    08:00 +17°C° 0 mm 3 m/s 723 mmHg 65%
    09:00 +18°C° 0 mm 3 m/s 724 mmHg 64%
    10:00 +19°C° 0 mm 4 m/s 725 mmHg 63%
    11:00 +20°C° 0 mm 5 m/s 725 mmHg 62%
    12:00 +21°C° 0 mm 5 m/s 725 mmHg 60%
    13:00 +21°C° 0 mm 5 m/s 724 mmHg 58%
    14:00 +21°C° 0 mm 5 m/s 724 mmHg 56%
    15:00 +20°C° 0 mm 5 m/s 724 mmHg 60%
    16:00 +19°C° 0 mm 5 m/s 724 mmHg 65%
    17:00 +17°C° 0 mm 5 m/s 724 mmHg 69%
    18:00 +16°C° 0 mm 5 m/s 725 mmHg 72%
    19:00 +14°C° 0 mm 5 m/s 726 mmHg 75%
    20:00 +13°C° 0 mm 5 m/s 726 mmHg 78%
    21:00 +13°C° 0 mm 4 m/s 727 mmHg 78%
    22:00 +12°C° 0 mm 4 m/s 727 mmHg 78%
    23:00 +12°C° 0 mm 4 m/s 727 mmHg 78%

    30 Iulie, Duminică

    Timp Temperatura Precipitaţii Vânt Presiune Umiditate
    00:00 +11°C° 0 mm 4 m/s 727 mmHg 78%
    01:00 +11°C° 0 mm 4 m/s 727 mmHg 78%
    02:00 +10°C° 0 mm 3 m/s 727 mmHg 78%
    03:00 +10°C° 0 mm 3 m/s 726 mmHg 78%
    04:00 +10°C° 0 mm 3 m/s 726 mmHg 78%
    05:00 +10°C° 0 mm 3 m/s 726 mmHg 78%
    06:00 +10°C° 0 mm 3 m/s 727 mmHg 76%
    07:00 +10°C° 0 mm 3 m/s 727 mmHg 75%
    08:00 +11°C° 0 mm 4 m/s 728 mmHg 74%
    09:00 +12°C° 0 mm 4 m/s 728 mmHg 71%
    10:00 +13°C° 0 mm 4 m/s 728 mmHg 68%
    11:00 +14°C° 0 mm 4 m/s 728 mmHg 65%
    12:00 +15°C° 0 mm 4 m/s 727 mmHg 62%
    13:00 +17°C° 0 mm 3 m/s 727 mmHg 60%
    14:00 +18°C° 0 mm 3 m/s 727 mmHg 57%
    15:00 +18°C° 0 mm 4 m/s 727 mmHg 60%
    16:00 +17°C° 0 mm 4 m/s 727 mmHg 63%
    17:00 +15°C° 0 mm 4 m/s 727 mmHg 67%
    18:00 +14°C° 0 mm 4 m/s 727 mmHg 71%
    19:00 +13°C° 0 mm 4 m/s 728 mmHg 76%
    20:00 +11°C° 0 mm 4 m/s 728 mmHg 81%
    21:00 +11°C° 0 mm 4 m/s 728 mmHg 81%
    22:00 +10°C° 0 mm 4 m/s 728 mmHg 82%
    23:00 +10°C° 0 mm 4 m/s 729 mmHg 82%

    31 Iulie, Luni

    Timp Temperatura Precipitaţii Vânt Presiune Umiditate
    00:00 +10°C° 0 mm 4 m/s 728 mmHg 84%
    01:00 +9°C° 0 mm 3 m/s 728 mmHg 85%
    02:00 +9°C° 0 mm 3 m/s 728 mmHg 87%
    03:00 +9°C° 0 mm 3 m/s 728 mmHg 87%
    04:00 +9°C° 0 mm 3 m/s 727 mmHg 87%
    05:00 +8°C° 0 mm 3 m/s 727 mmHg 88%
    06:00 +9°C° 0 mm 3 m/s 727 mmHg 87%
    07:00 +9°C° 0 mm 3 m/s 728 mmHg 86%
    08:00 +9°C° 0 mm 3 m/s 728 mmHg 85%
    09:00 +10°C° 0 mm 3 m/s 728 mmHg 80%
    10:00 +11°C° 0 mm 3 m/s 728 mmHg 75%
    11:00 +12°C° 0 mm 3 m/s 727 mmHg 71%
    12:00 +13°C° 0 mm 3 m/s 727 mmHg 68%
    13:00 +14°C° 0 mm 3 m/s 726 mmHg 65%
    14:00 +16°C° 0 mm 3 m/s 725 mmHg 62%
    15:00 +14°C° 0 mm 3 m/s 724 mmHg 64%
    16:00 +14°C° 0 mm 3 m/s 724 mmHg 66%
    17:00 +14°C° 0 mm 3 m/s 724 mmHg 68%
    18:00 +13°C° 0 mm 2 m/s 724 mmHg 74%
    19:00 +12°C° 0 mm 2 m/s 724 mmHg 79%
    20:00 +11°C° 0 mm 1 m/s 725 mmHg 85%
    21:00 +11°C° 0,1 mm 1 m/s 725 mmHg 86%
    22:00 +11°C° 0,1 mm 1 m/s 725 mmHg 86%
    23:00 +11°C° 0,1 mm 1 m/s 725 mmHg 87%
    Arată mai mult